Change the Weather History Date:

Saturday, June 8, 2013

  Actual Average Record
Temperature  
Mean Temperature 82 °F -  
Max Temperature 99 °F 94 °F 108 °F (2008)
Min Temperature 66 °F 66 °F 56 °F (1993)
Cooling Degree Days 17    
Growing Degree Days 32 (Base 50)    
Moisture  
Dew Point 56 °F    
Average Humidity 47    
Maximum Humidity 76    
Minimum Humidity 17    
Precipitation  
Precipitation 0.00 in - - ()
Sea Level Pressure  
Sea Level Pressure 29.69 in    
Wind  
Wind Speed 11 mph (SE)    
Max Wind Speed 21 mph    
Max Gust Speed 34 mph    
Visibility 10 miles    
Events      
Averages and records for this station are not official NWS values.
T = Trace of Precipitation, MM = Missing Value Source: NWS Daily Summary

Daily Weather History Graph

Daily Weather History Graph

Search for Another Location

Airport or City:

Trip Planner

Search our weather history database for the weather conditions in past years. The results will help you decide how hot, cold, wet, or windy it might be!

Date:

Astronomy

Jun. 08, 2013 Rise Set
Actual Time 6:46 AM CDT 8:57 PM CDT
Civil Twilight 6:18 AM CDT 9:25 PM CDT
Nautical Twilight 5:44 AM CDT 9:59 PM CDT
Astronomical Twilight 5:07 AM CDT 10:36 PM CDT
Moon 6:53 AM CDT (6/8) 9:04 PM CDT (6/8)
Length of Visible Light 15h 06m
Length of Day
14h 10m
New Moon, 0% of the Moon is Illuminated
Jun 8
New Moon
Jun 16
First Quarter
Jun 23
Full
Jun 29
Last Quarter
Jul 8
New

Hourly Weather History & Observations

Time (CDT) Temp. Heat Index Dew Point Humidity Pressure Visibility Wind Dir Wind Speed Gust Speed Precip Events Conditions
12:53 AM 73.9 °F - 57.0 °F 55% 29.83 in 10.0 mi SSE 9.2 mph - N/A   Clear
1:53 AM 72.0 °F - 57.9 °F 61% 29.79 in 10.0 mi ESE 12.7 mph - N/A   Clear
2:53 AM 71.1 °F - 59.0 °F 66% 29.83 in 10.0 mi NE 11.5 mph - N/A   Clear
3:53 AM 68.0 °F - 55.9 °F 65% 29.79 in 10.0 mi ENE 19.6 mph 31.1 mph N/A   Clear
4:53 AM 66.9 °F - 57.0 °F 70% 29.75 in 10.0 mi East 15.0 mph - N/A   Clear
5:53 AM 66.9 °F - 57.9 °F 73% 29.74 in 10.0 mi SE 18.4 mph 24.2 mph N/A   Clear
6:53 AM 66.9 °F - 57.9 °F 73% 29.76 in 10.0 mi SE 4.6 mph - N/A   Clear
7:53 AM 66.9 °F - 59.0 °F 76% 29.76 in 10.0 mi SE 6.9 mph - N/A   Clear
8:53 AM 69.1 °F - 59.0 °F 70% 29.77 in 10.0 mi SSE 8.1 mph - N/A   Clear
9:53 AM 72.0 °F - 60.1 °F 66% 29.77 in 10.0 mi SSE 8.1 mph - N/A   Clear
10:53 AM 77.0 °F - 59.0 °F 54% 29.75 in 10.0 mi Variable 5.8 mph - N/A   Clear
11:53 AM 82.0 °F 81.7 °F 57.0 °F 42% 29.74 in 10.0 mi Variable 4.6 mph - N/A   Clear
12:53 PM 86.0 °F 84.5 °F 55.0 °F 35% 29.71 in 10.0 mi South 9.2 mph - N/A   Clear
1:53 PM 90.0 °F 87.5 °F 53.1 °F 28% 29.68 in 10.0 mi ESE 5.8 mph - N/A   Clear
2:53 PM 95.0 °F - 50.0 °F 22% 29.65 in 10.0 mi South 10.4 mph 20.7 mph N/A   Clear
3:53 PM 95.0 °F - 48.9 °F 21% 29.62 in 10.0 mi Variable 5.8 mph 18.4 mph N/A   Clear
4:53 PM 96.1 °F - 48.9 °F 20% 29.59 in 10.0 mi Variable 5.8 mph - N/A   Clear
5:53 PM 98.1 °F - 46.0 °F 17% 29.57 in 10.0 mi Variable 5.8 mph - N/A   Clear
6:53 PM 97.0 °F - 46.9 °F 18% 29.55 in 10.0 mi SE 9.2 mph - N/A   Clear
7:53 PM 93.0 °F 91.4 °F 55.9 °F 29% 29.57 in 10.0 mi SE 18.4 mph 28.8 mph N/A   Clear
8:53 PM 89.1 °F 88.0 °F 57.9 °F 35% 29.60 in 10.0 mi SE 20.7 mph 31.1 mph N/A   Clear
9:53 PM 84.9 °F 84.4 °F 59.0 °F 41% 29.61 in 10.0 mi SSE 19.6 mph 34.5 mph N/A   Clear
10:53 PM 82.9 °F 83.3 °F 61.0 °F 47% 29.61 in 10.0 mi SSE 16.1 mph 27.6 mph N/A   Clear
11:53 PM 81.0 °F 81.7 °F 61.0 °F 50% 29.64 in 10.0 mi SE 18.4 mph 25.3 mph N/A   Clear